EWG21 LFPG-EDDM

Flight info

Callsign EWG21
Flight time 0h 59m
Altitude 33000
Route LANVI DCT LUPEN/N0366F270 T107 ROKIL ROKIL1A
Aircraft A20N/M-SDE2E3FGHIRWXY/LB1

Departure

Time 2026-05-04 16:32
Airport Charles de Gaulle International Airport (LFPG)

Arrival

Time 2026-05-04 17:31
Airport Munich Airport (EDDM)
Time Latitude Longitude Altitude Speed Heading
2026-05-04 16:09 49.00179 2.55860 360 ft 0 kts 61°
2026-05-04 16:20 49.00169 2.55833 363 ft 3 kts 61°
2026-05-04 16:21 49.00141 2.55741 365 ft 4 kts 79°
2026-05-04 16:22 49.00139 2.55726 361 ft 4 kts 83°
2026-05-04 16:22 49.00157 2.55610 362 ft 4 kts 133°
2026-05-04 16:23 49.00195 2.55580 361 ft 0 kts 164°
2026-05-04 16:26 49.00159 2.55596 361 ft 8 kts 162°
2026-05-04 16:27 49.00067 2.55625 361 ft 9 kts 196°
2026-05-04 16:28 48.99978 2.55329 363 ft 20 kts 261°
2026-05-04 16:28 48.99955 2.54876 363 ft 12 kts 264°
2026-05-04 16:29 48.99704 2.54989 366 ft 21 kts 121°
2026-05-04 16:30 48.99582 2.55480 360 ft 19 kts 73°
2026-05-04 16:31 48.99598 2.55916 361 ft 74 kts 86°
2026-05-04 16:31 48.99770 2.58742 687 ft 173 kts 84°
2026-05-04 16:32 49.00099 2.65218 2693 ft 237 kts 84°
2026-05-04 16:33 49.00487 2.70541 4315 ft 270 kts 83°
2026-05-04 16:33 49.00869 2.76462 6637 ft 288 kts 89°
2026-05-04 16:34 49.00376 2.82681 9231 ft 308 kts 100°
2026-05-04 16:34 49.00037 2.85769 10157 ft 287 kts 100°
2026-05-04 16:35 48.98879 2.95591 12113 ft 340 kts 101°
2026-05-04 16:35 48.97917 3.06587 15417 ft 361 kts 97°
2026-05-04 16:36 48.97617 3.10432 16332 ft 371 kts 98°
2026-05-04 16:36 48.96972 3.18285 18305 ft 384 kts 99°
2026-05-04 16:37 48.96282 3.26435 19655 ft 393 kts 99°
2026-05-04 16:37 48.95923 3.30625 19862 ft 395 kts 99°
2026-05-04 16:37 48.95213 3.38865 20082 ft 399 kts 99°
2026-05-04 16:38 48.94485 3.47244 20990 ft 401 kts 99°
2026-05-04 16:39 48.93453 3.60059 22388 ft 413 kts 98°
2026-05-04 16:39 48.93042 3.68864 23380 ft 420 kts 97°
2026-05-04 16:40 48.92603 3.77765 24240 ft 425 kts 98°
2026-05-04 16:40 48.92121 3.86741 25096 ft 430 kts 98°
2026-05-04 16:41 48.91620 3.95809 25987 ft 435 kts 98°
2026-05-04 16:41 48.90839 4.09696 27382 ft 444 kts 99°
2026-05-04 16:42 48.89396 4.23625 28831 ft 444 kts 114°
2026-05-04 16:43 48.86709 4.31969 29870 ft 444 kts 124°
2026-05-04 16:43 48.83695 4.40182 30744 ft 446 kts 124°
2026-05-04 16:43 48.82181 4.44315 31194 ft 448 kts 124°
2026-05-04 16:44 48.76131 4.60758 32874 ft 445 kts 124°
2026-05-04 16:45 48.73113 4.68912 32939 ft 443 kts 124°
2026-05-04 16:46 48.65590 4.89132 32941 ft 440 kts 125°
2026-05-04 16:47 48.61120 5.01068 32941 ft 440 kts 125°
2026-05-04 16:48 48.55098 5.17068 32945 ft 440 kts 125°
2026-05-04 16:49 48.49537 5.31761 32952 ft 440 kts 125°
2026-05-04 16:50 48.43439 5.47779 32958 ft 440 kts 126°
2026-05-04 16:51 48.38850 5.59769 32966 ft 440 kts 126°
2026-05-04 16:52 48.32855 5.75799 32985 ft 446 kts 118°
2026-05-04 16:52 48.31958 5.80214 32988 ft 455 kts 107°
2026-05-04 16:53 48.31870 5.89909 32992 ft 469 kts 89°
2026-05-04 16:54 48.33276 6.09362 32993 ft 470 kts 89°
2026-05-04 16:55 48.34948 6.33737 32991 ft 469 kts 89°
2026-05-04 16:56 48.36563 6.58064 32990 ft 469 kts 89°
2026-05-04 16:57 48.37510 6.72710 32987 ft 469 kts 89°
2026-05-04 16:58 48.38740 6.92200 32979 ft 470 kts 89°
2026-05-04 17:00 48.40531 7.21528 32986 ft 470 kts 89°
2026-05-04 17:01 48.41967 7.46075 32977 ft 472 kts 89°
2026-05-04 17:02 48.43080 7.65681 32990 ft 472 kts 89°
2026-05-04 17:03 48.43665 7.80451 32997 ft 471 kts 91°
2026-05-04 17:03 48.44065 7.95259 32990 ft 471 kts 91°
2026-05-04 17:04 48.44544 8.14968 32986 ft 471 kts 91°
2026-05-04 17:05 48.44984 8.34696 32966 ft 471 kts 92°
2026-05-04 17:06 48.45292 8.49482 32970 ft 471 kts 92°
2026-05-04 17:07 48.45549 8.62631 32968 ft 471 kts 92°
2026-05-04 17:07 48.45759 8.74005 32965 ft 469 kts 92°
2026-05-04 17:08 48.46015 8.88744 32959 ft 469 kts 92°
2026-05-04 17:09 48.46176 8.98577 32962 ft 469 kts 92°
2026-05-04 17:09 48.46253 9.08421 32955 ft 468 kts 94°
2026-05-04 17:10 48.46246 9.32973 32957 ft 470 kts 93°
2026-05-04 17:11 48.46243 9.42820 32955 ft 470 kts 93°
2026-05-04 17:12 48.46221 9.57557 32948 ft 472 kts 93°
2026-05-04 17:12 48.46199 9.67289 32343 ft 466 kts 93°
2026-05-04 17:13 48.46233 9.81935 29515 ft 466 kts 92°
2026-05-04 17:14 48.46289 9.96246 27088 ft 449 kts 92°
2026-05-04 17:14 48.46298 10.00903 26299 ft 444 kts 92°
2026-05-04 17:14 48.46311 10.10095 24819 ft 434 kts 92°
2026-05-04 17:15 48.46315 10.14621 24121 ft 428 kts 92°
2026-05-04 17:15 48.46317 10.23504 22608 ft 419 kts 92°
2026-05-04 17:16 48.46311 10.32186 21070 ft 409 kts 92°
2026-05-04 17:16 48.46292 10.44791 18872 ft 397 kts 92°
2026-05-04 17:17 48.46283 10.48936 18166 ft 394 kts 92°
2026-05-04 17:17 48.46257 10.58253 16560 ft 380 kts 92°
2026-05-04 17:18 48.46328 10.62196 16123 ft 369 kts 91°
2026-05-04 17:18 48.46244 10.69479 15645 ft 327 kts 94°
2026-05-04 17:19 48.46136 10.76139 14386 ft 314 kts 92°
2026-05-04 17:19 48.47173 10.82481 12972 ft 310 kts 74°
2026-05-04 17:20 48.48524 10.88615 11385 ft 310 kts 74°
2026-05-04 17:20 48.50136 10.94569 10178 ft 304 kts 53°
2026-05-04 17:20 48.51667 10.96877 10007 ft 314 kts 49°
2026-05-04 17:21 48.53098 11.02691 9109 ft 293 kts 98°
2026-05-04 17:21 48.51328 11.07855 8100 ft 277 kts 134°
2026-05-04 17:22 48.50057 11.10039 7631 ft 275 kts 134°
2026-05-04 17:22 48.48807 11.12157 7204 ft 273 kts 134°
2026-05-04 17:23 48.44987 11.18436 5980 ft 270 kts 134°
2026-05-04 17:23 48.43701 11.20483 5542 ft 267 kts 134°
2026-05-04 17:23 48.41224 11.24350 5115 ft 240 kts 134°
2026-05-04 17:24 48.40079 11.26103 5001 ft 229 kts 134°
2026-05-04 17:24 48.37030 11.31763 5000 ft 237 kts 114°
2026-05-04 17:25 48.36361 11.34015 4998 ft 234 kts 114°
2026-05-04 17:25 48.35032 11.38484 4999 ft 234 kts 114°
2026-05-04 17:26 48.33948 11.43097 5003 ft 236 kts 97°
2026-05-04 17:26 48.34249 11.50437 4958 ft 237 kts 84°
2026-05-04 17:27 48.34630 11.55395 4284 ft 239 kts 83°
2026-05-04 17:27 48.35001 11.60216 3657 ft 221 kts 83°
2026-05-04 17:28 48.35318 11.64321 3149 ft 170 kts 83°
2026-05-04 17:29 48.35677 11.68991 2546 ft 129 kts 82°
2026-05-04 17:29 48.35992 11.73064 1965 ft 131 kts 81°
2026-05-04 17:30 48.36298 11.77031 1526 ft 128 kts 82°
2026-05-04 17:31 48.36452 11.79034 1488 ft 71 kts 84°
2026-05-04 17:31 48.36496 11.80007 1477 ft 19 kts 99°
2026-05-04 17:32 48.36375 11.80459 1484 ft 14 kts 116°
2026-05-04 17:33 48.36366 11.80488 1485 ft 5 kts 114°
2026-05-04 17:33 48.36331 11.80529 1485 ft 3 kts 189°
2026-05-04 17:34 48.36277 11.80277 1476 ft 16 kts 262°
2026-05-04 17:34 48.36269 11.80186 1489 ft 2 kts 262°
2026-05-04 17:35 48.36252 11.79955 1490 ft 5 kts 267°
2026-05-04 17:35 48.36244 11.79794 1490 ft 7 kts 263°
2026-05-04 17:35 48.36232 11.79694 1484 ft 13 kts 258°
2026-05-04 17:36 48.36227 11.79622 1491 ft 3 kts 264°
2026-05-04 17:36 48.36224 11.79585 1487 ft 7 kts 263°
2026-05-04 17:36 48.36216 11.79494 1488 ft 0 kts 259°
2026-05-04 17:36 48.36205 11.79471 1484 ft 5 kts 216°
2026-05-04 17:37 48.36135 11.79493 1477 ft 11 kts 138°
2026-05-04 17:37 48.36115 11.79520 1482 ft 2 kts 147°
2026-05-04 17:37 48.36111 11.79517 1484 ft 0 kts 188°
2026-05-04 17:37 48.36110 11.79513 1485 ft 0 kts 221°
2026-05-04 17:38 48.36110 11.79508 1485 ft 0 kts 247°
2026-05-04 17:38 48.36108 11.79486 1489 ft 5 kts 258°
2026-05-04 17:38 48.36102 11.79418 1482 ft 0 kts 263°
2026-05-04 17:38 48.36100 11.79400 1491 ft 0 kts 263°
2026-05-04 17:39 48.36095 11.79341 1491 ft 4 kts 253°
2026-05-04 17:39 48.36062 11.79325 1491 ft 6 kts 176°
2026-05-04 17:39 48.36061 11.79325 1491 ft 0 kts 178°
2026-05-04 17:40 48.36046 11.79325 1478 ft 6 kts 178°
2026-05-04 17:40 48.36003 11.79332 1486 ft 8 kts 173°
2026-05-04 17:41 48.35976 11.79337 1483 ft 4 kts 173°
2026-05-04 17:41 48.35937 11.79347 1491 ft 0 kts 163°
2026-05-04 17:41 48.35917 11.79365 1480 ft 6 kts 134°
2026-05-04 17:41 48.35890 11.79423 1483 ft 1 kts 130°
2026-05-04 17:42 48.35866 11.79450 1488 ft 7 kts 156°
2026-05-04 17:42 48.35795 11.79464 1490 ft 14 kts 173°
2026-05-04 17:42 48.35703 11.79473 1480 ft 0 kts 175°
2026-05-04 17:42 48.35680 11.79479 1487 ft 7 kts 171°
2026-05-04 17:43 48.35605 11.79494 1484 ft 14 kts 173°
2026-05-04 17:43 48.35553 11.79503 1480 ft 3 kts 173°
2026-05-04 17:43 48.35506 11.79512 1483 ft 11 kts 173°
2026-05-04 17:43 48.35409 11.79530 1482 ft 17 kts 175°
2026-05-04 17:44 48.35342 11.79539 1478 ft 12 kts 173°
2026-05-04 17:44 48.35239 11.79559 1478 ft 18 kts 173°
2026-05-04 17:44 48.35189 11.79568 1477 ft 3 kts 175°
2026-05-04 17:44 48.35139 11.79574 1483 ft 11 kts 173°
2026-05-04 17:45 48.35119 11.79577 1483 ft 5 kts 173°
2026-05-04 17:45 48.35069 11.79586 1476 ft 0 kts 173°
2026-05-04 17:45 48.35044 11.79590 1487 ft 7 kts 173°
2026-05-04 17:45 48.35004 11.79576 1486 ft 0 kts 225°
2026-05-04 17:46 48.35001 11.79547 1481 ft 5 kts 273°
2026-05-04 17:46 48.35017 11.79480 1476 ft 0 kts 290°
2026-05-04 17:46 48.35018 11.79452 1482 ft 5 kts 266°
2026-05-04 17:46 48.35003 11.79428 1481 ft 2 kts 225°
2026-05-04 17:47 48.34995 11.79398 1485 ft 0 kts 261°
2026-05-04 17:47 48.34994 11.79383 1478 ft 3 kts 263°
2026-05-04 17:47 48.34994 11.79378 1480 ft 0 kts 263°